Location: Bittelbronn
(48.4454°N, 8.5870°E)
Time: 08:39:58
(UTC+00:00)

Meteor 2-5 Rocket - Pass Details

Date: 08 August 2024
Orbit: 833 x 910 km, 81.2° (Epoch: 16 September)

Event Time Altitude Azimuth Distance (km) Brightness Sun altitude
Rises 00:50:23 0° 360° (N) 3,443 8.1 -23.2°
Reaches altitude 10° 00:54:09 10° 25° (NNE) 2,518 7.3 -22.9°
Maximum altitude 00:57:04 14° 56° (NE) 2,248 6.6 -22.7°
Drops below altitude 10° 01:00:00 10° 87° (E) 2,538 6.5 -22.6°
Sets 01:03:48 0° 112° (ESE) 3,489 6.9 -22.3°
